Location: Rotheul
(50.2849°N, 11.2349°E)
Time: 07:31:25
(UTC+02:00)

ISS - Visible Passes

Search period start: 25 May 2018 00:00
Search period end: 04 June 2018 00:00
Orbit: 402 x 407 km, 51.6° (Epoch: 25 May)

Date Brightness Start Highest point End Pass type
(mag) Time Alt. Az. Time Alt. Az. Time Alt. Az.
25 May -3.6 00:29:48 10° W 00:33:05 70° N 00:35:43 15° E visible
25 May -2.7 02:06:21 10° WNW 02:08:18 30° W 02:08:18 30° W visible
25 May -3.9 22:01:01 10° WSW 22:04:16 73° SSE 22:07:32 10° ENE visible
25 May -3.5 23:37:34 10° W 23:40:50 66° N 23:44:05 10° E visible
26 May -4.0 01:14:07 10° WNW 01:17:14 70° SW 01:17:14 70° SW visible
26 May -3.5 22:45:18 10° W 22:48:34 70° N 22:51:50 10° E visible
27 May -3.9 00:21:54 10° WNW 00:25:11 87° NNE 00:26:25 35° ESE visible
27 May -1.4 01:58:34 10° W 01:59:01 13° W 01:59:01 13° W visible
27 May -3.7 21:53:02 10° W 21:56:19 80° N 21:59:35 10° ENE visible
27 May -3.7 23:29:39 10° WNW 23:32:56 73° N 23:35:41 14° E visible
28 May -2.7 01:06:12 10° W 01:08:19 31° WSW 01:08:19 31° WSW visible
28 May -3.5 22:37:23 10° W 22:40:39 67° N 22:43:54 10° E visible
29 May -3.9 00:13:56 10° WNW 00:17:11 64° SSW 00:17:39 54° SSE visible
29 May -3.9 23:21:40 10° WNW 23:24:57 86° SSW 23:27:01 21° ESE visible
30 May -1.8 00:58:25 10° W 00:59:38 18° WSW 00:59:38 18° WSW visible
30 May -3.7 22:29:23 10° WNW 22:32:40 77° N 22:35:57 10° E visible
31 May -3.2 00:05:58 10° W 00:09:02 37° SSW 00:09:02 37° SSW visible
31 May -3.7 23:13:37 10° WNW 23:16:50 56° SSW 23:18:27 26° SE visible
01 Jun -3.9 22:21:19 10° WNW 22:24:36 79° SSW 22:27:51 10° ESE visible
01 Jun -2.2 23:58:11 10° W 00:00:31 21° SW 00:00:31 21° SW visible
02 Jun -2.9 23:05:38 10° W 23:08:35 32° SSW 23:09:59 22° SSE visible
03 Jun -3.4 22:13:12 10° WNW 22:16:24 49° SSW 22:19:28 11° SE visible
03 Jun -1.4 23:51:13 10° WSW 23:52:06 11° SW 23:52:06 11° SW visible
